TimeEEST,TemperatureF,Dew PointF,Humidity,Sea Level PressureIn,VisibilityMPH,Wind Direction,Wind SpeedMPH,Gust SpeedMPH,PrecipitationIn,Events,Conditions,WindDirDegrees,DateUTC
12:20 AM,55.4,32.0,41,29.80,4.3,NNE,4.6,-,N/A,,Unknown,20,2013-09-27 21:20:00
12:50 AM,59.0,28.4,31,29.80,3.7,NE,3.5,-,N/A,,Unknown,50,2013-09-27 21:50:00
1:20 AM,53.6,33.8,47,29.80,3.7,NE,6.9,-,N/A,,Unknown,40,2013-09-27 22:20:00
1:50 AM,53.6,30.2,41,29.80,4.3,NNE,6.9,-,N/A,,Unknown,20,2013-09-27 22:50:00
2:20 AM,53.6,28.4,38,29.80,4.3,NNE,5.8,-,N/A,,Unknown,30,2013-09-27 23:20:00
2:50 AM,50.0,32.0,50,29.80,5.0,NNE,5.8,-,N/A,,Unknown,20,2013-09-27 23:50:00
3:20 AM,51.8,30.2,44,29.80,5.0,NE,6.9,-,N/A,,Unknown,40,2013-09-28 00:20:00
3:50 AM,51.8,32.0,47,29.80,5.0,NE,4.6,-,N/A,,Unknown,40,2013-09-28 00:50:00
4:20 AM,51.8,35.6,54,29.80,5.0,North,4.6,-,N/A,,Unknown,360,2013-09-28 01:20:00
4:50 AM,50.0,35.6,58,29.80,5.0,North,3.5,-,N/A,,Unknown,10,2013-09-28 01:50:00
5:20 AM,51.8,33.8,50,29.80,3.1,Variable,2.3,-,N/A,,Smoke,0,2013-09-28 02:20:00
5:50 AM,48.2,35.6,62,29.80,2.5,Variable,2.3,-,N/A,,Smoke,0,2013-09-28 02:50:00
6:20 AM,50.0,35.6,58,29.83,2.2,Variable,1.2,-,N/A,,Smoke,0,2013-09-28 03:20:00
6:50 AM,50.0,33.8,54,29.83,1.2,Calm,Calm,-,N/A,,Smoke,0,2013-09-28 03:50:00
7:20 AM,53.6,35.6,51,29.83,1.1,Calm,Calm,-,N/A,,Smoke,0,2013-09-28 04:20:00
7:50 AM,57.2,35.6,44,29.83,1.1,Calm,Calm,-,N/A,,Smoke,0,2013-09-28 04:50:00
8:20 AM,62.6,32.0,32,29.83,1.2,Variable,2.3,-,N/A,,Smoke,0,2013-09-28 05:20:00
8:50 AM,66.2,32.0,28,29.83,0.9,NE,4.6,-,N/A,,Smoke,40,2013-09-28 05:50:00
9:20 AM,69.8,30.2,23,29.83,1.9,NNE,4.6,-,N/A,,Smoke,30,2013-09-28 06:20:00
9:50 AM,75.2,30.2,19,29.83,1.9,Variable,2.3,-,N/A,,Smoke,0,2013-09-28 06:50:00
10:20 AM,78.8,28.4,16,29.83,3.1,Variable,2.3,-,N/A,,Smoke,0,2013-09-28 07:20:00
10:50 AM,80.6,30.2,16,29.83,3.1,Variable,2.3,-,N/A,,Smoke,0,2013-09-28 07:50:00
11:20 AM,82.4,30.2,15,29.80,5.6,South,4.6,-,N/A,,Unknown,180,2013-09-28 08:20:00
11:50 AM,82.4,32.0,16,29.80,-9999.0,West,5.8,-,N/A,,Clear,260,2013-09-28 08:50:00
12:20 PM,86.0,32.0,14,29.80,6.2,Variable,4.6,-,N/A,,Partly Cloudy,0,2013-09-28 09:20:00
12:50 PM,86.0,33.8,15,29.80,6.2,West,8.1,-,N/A,,Partly Cloudy,280,2013-09-28 09:50:00
1:20 PM,87.8,33.8,15,29.77,6.2,WSW,4.6,-,N/A,,Partly Cloudy,240,2013-09-28 10:20:00
1:50 PM,86.0,33.8,15,29.77,6.2,SW,11.5,-,N/A,,Partly Cloudy,230,2013-09-28 10:50:00
2:20 PM,86.0,33.8,15,29.77,6.2,West,9.2,-,N/A,,Scattered Clouds,270,2013-09-28 11:20:00
2:50 PM,86.0,33.8,15,29.77,6.2,WSW,5.8,-,N/A,,Scattered Clouds,240,2013-09-28 11:50:00
3:20 PM,86.0,33.8,15,29.77,6.2,SW,6.9,-,N/A,,Scattered Clouds,230,2013-09-28 12:20:00
3:50 PM,87.8,32.0,14,29.77,6.2,SSW,11.5,-,N/A,,Scattered Clouds,200,2013-09-28 12:50:00
4:20 PM,86.0,32.0,14,29.77,6.2,SSW,11.5,-,N/A,,Partly Cloudy,210,2013-09-28 13:20:00
4:50 PM,86.0,33.8,15,29.77,6.2,SW,12.7,-,N/A,,Partly Cloudy,220,2013-09-28 13:50:00
5:20 PM,84.2,35.6,18,29.77,6.2,SW,13.8,-,N/A,,Partly Cloudy,220,2013-09-28 14:20:00
5:50 PM,80.6,37.4,21,29.80,6.2,SW,10.4,-,N/A,,Partly Cloudy,220,2013-09-28 14:50:00
6:20 PM,77.0,37.4,24,29.80,6.2,SSW,8.1,-,N/A,,Partly Cloudy,210,2013-09-28 15:20:00
6:50 PM,75.2,39.2,27,29.80,-9999.0,WSW,4.6,-,N/A,,Clear,240,2013-09-28 15:50:00
7:20 PM,73.4,41.0,31,29.80,-9999.0,SW,4.6,-,N/A,,Clear,230,2013-09-28 16:20:00
7:50 PM,73.4,39.2,29,29.83,-9999.0,Calm,Calm,-,N/A,,Clear,0,2013-09-28 16:50:00
8:20 PM,71.6,39.2,31,29.83,-9999.0,Variable,1.2,-,N/A,,Clear,0,2013-09-28 17:20:00
8:50 PM,71.6,39.2,31,29.83,-9999.0,Variable,2.3,-,N/A,,Clear,0,2013-09-28 17:50:00
9:20 PM,71.6,39.2,31,29.83,-9999.0,SSE,3.5,-,N/A,,Clear,160,2013-09-28 18:20:00
9:50 PM,71.6,39.2,31,29.86,-9999.0,SSE,2.3,-,N/A,,Clear,150,2013-09-28 18:50:00
10:20 PM,60.8,41.0,48,29.86,-9999.0,NNE,8.1,-,N/A,,Clear,30,2013-09-28 19:20:00
10:50 PM,60.8,39.2,45,29.86,-9999.0,NNE,4.6,-,N/A,,Clear,20,2013-09-28 19:50:00
11:20 PM,59.0,39.2,48,29.86,-9999.0,NNE,6.9,-,N/A,,Clear,30,2013-09-28 20:20:00
11:50 PM,59.0,39.2,48,29.86,-9999.0,NNE,6.9,-,N/A,,Clear,30,2013-09-28 20:50:00